星链-32641 (STARLINK-32641)

导读

STARLINK-32641是美国SpaceX公司星链(Starlink)星座的卫星,于2024年12月5日发射,属于星链网络扩容任务。它依托星链计划,旨在为全球提供低延迟、高速率的卫星互联网服务,覆盖偏远地区等传统网络难以触达区域,进一步完善星链低轨卫星互联网的全球覆盖与服务能力。

基本信息
目录编号:
62236
目录名称:
STARLINK-32641
国际标识:
2024-231U
轨道中心:
EARTH
卫星名称:
星链-32641
卫星全名:
星链-32641 (STARLINK-32641)
卫星状态:
在轨 (已飞行559 天)
发射日期:
2024-12-05 UTC
国别 :
美国 (US)
星等 :
--
轨道信息
数据来源 国际轨道数据
星历时间: 2026-06-17T11:15:12+0800
16小时前
查看轨道信息
半长轴: 6853.348km
偏心率: 0.0000938
轨道倾角: 53.159°
近地点辐角 104.379°
升交点赤经 104.956°
平近点角 255.732°
近地点: 474.568km
远地点: 475.854km
周期: 94.105分钟
每日圈数: 15.302014
详细信息
固有亮度:
5
最大亮度:
2.5
卫星平台:
Starlink V1.0
覆盖范围:
全球
运营商:
太空探索技术公司
运营商所在国:
美国
制造商(研发单位):
太空探索技术公司
制造商所在国:
美国
使用方式:
暂无
卫星简介
Starlink 计划是 SpaceX 推出的全球卫星互联网项目,通过发射低轨道卫星,为全球尤其是偏远地区提供高速、低延迟的互联网服务。自 2019 年起,Starlink 已部署数千颗卫星,旨在缩小全球数字鸿沟,推动互联网普及。该项目还为军事、航空等行业提供通信支持,带来广泛经济效益。
2D轨道图
3D轨道图
轨道高度分析图
轨道倾角分析图
轨道综合分析图
查看轨道综合分析图